Home > Weather > Darwin > Past weeks

Flag for Australia Weather for the Past 2 Weeks in Darwin, Northern Territory, Australia

Now
86 °F

Scattered clouds.


Feels Like: 97 °F
Forecast: 78 / 90 °F
Wind: 13 mph from East

Location: Darwin Airport

Current Time: May 4, 2016 at 10:16:35 AM

Latest Report: May 4, 2016 at 9:30 AM


Visibility: N/A

Pressure: 29.92 "Hg

Humidity: 75%

Dew Point: 77 °F

Location of DarwinLocation

Historic Weather in Darwin — Graph

°F

Darwin Temperature Yesterday

Maximum temperature yesterday: 91 °F (at 12:30 PM)
Minimum temperature yesterday: 75 °F (at 3:00 PM)
Average temperature yesterday: 81 °F

High & Low Weather Summary for the Past Weeks

 TemperatureHumidityPressure
High97 °F (Apr 22, 3:30 PM)100% (May 1, 5:00 AM)29.95 "Hg (May 1, 5:00 AM)
Low75 °F (Apr 24, 5:30 AM)23% (Apr 25, 3:30 PM)29.74 "Hg (Apr 27, 3:30 PM)
Average84 °F71%29.85 "Hg
* Reported Apr 19 8:30 AM — May 4 9:00 AM, Darwin, Weather by CustomWeather, © 2016

Note: Actual official high and low records may vary slightly from our data, if they occured in-between our weather recording intervals... More about our weather records

Advertising

Darwin Weather History for the Previous 24 Hours

Scroll right to see more
 ConditionsComfort  
Time TempWeatherWind HumidityBarometerVisibility
9:00 AM
Wed, May 4
82 °FPartly sunny.10 mph84%29.92 "HgN/A
8:30 AM82 °FPartly sunny.9 mph79%29.89 "HgN/A
8:00 AM79 °FPartly sunny.8 mph89%29.89 "HgN/A
7:30 AM77 °FSunny.9 mph94%29.86 "Hg10 mi
6:30 AM77 °FClear.8 mph94%29.86 "Hg10 mi
6:00 AM77 °FClear.6 mph94%29.83 "Hg10 mi
5:30 AM79 °FClear.8 mph89%29.83 "Hg10 mi
5:00 AM79 °FClear.7 mph89%29.83 "HgN/A
4:30 AM79 °FClear.7 mph89%29.83 "HgN/A
4:00 AM79 °FClear.8 mph94%29.83 "HgN/A
3:30 AM79 °FClear.6 mph94%29.86 "HgN/A
2:30 AM79 °FClear.5 mph94%29.86 "HgN/A
2:00 AM79 °FClear.6 mph94%29.86 "Hg10 mi
1:30 AM79 °FClear.6 mph94%29.86 "Hg10 mi
1:00 AM79 °FClear.7 mph94%29.86 "Hg10 mi
12:30 AM79 °FClear.6 mph94%29.86 "Hg10 mi
12:00 AM79 °FClear.5 mph94%29.89 "Hg10 mi
11:30 PM
Tue, May 3
79 °FClear.6 mph94%29.89 "Hg10 mi
11:00 PM79 °FClear.6 mph94%29.89 "Hg10 mi
10:30 PM79 °FClear.6 mph94%29.89 "Hg10 mi
9:30 PM79 °FClear.7 mph94%29.89 "Hg10 mi
9:00 PM79 °FClear.7 mph94%29.89 "Hg10 mi
8:30 PM79 °FClear.3 mph94%29.86 "Hg10 mi
8:00 PM79 °FClear.No wind94%29.86 "Hg10 mi
7:30 PM79 °FPartly cloudy.5 mph94%29.83 "HgN/A
7:00 PM79 °FBroken clouds.6 mph94%29.83 "HgN/A
6:30 PM79 °FLight rain. Broken clouds.7 mph94%29.80 "HgN/A
6:00 PM79 °FLight rain. Broken clouds.7 mph94%29.80 "HgN/A
5:30 PM79 °FLight rain. Broken clouds.7 mph94%29.80 "HgN/A
4:30 PM79 °FLight rain. Partly sunny.5 mph94%29.80 "Hg6 mi
4:00 PM77 °FLight rain. Partly sunny.8 mph100%29.80 "HgN/A
3:30 PM77 °FThunderstorms. Partly sunny.6 mph100%29.83 "Hg4 mi
3:00 PM75 °FLots of rain. Broken clouds.8 mph100%29.83 "Hg4 mi
2:15 PM79 °FLots of rain. Partly sunny.21 mph94%29.83 "Hg1 mi
2:00 PM88 °FRain showers. Partly sunny.12 mph66%29.80 "HgN/A
1:30 PM88 °FScattered showers. Partly sunny.13 mph62%29.80 "HgN/A
1:00 PM90 °FScattered showers. Partly sunny.9 mph59%29.83 "HgN/A
12:30 PM91 °FScattered showers. Broken clouds.9 mph56%29.86 "HgN/A
12:00 PM90 °FBroken clouds.10 mph59%29.86 "HgN/A
11:00 AM88 °FBroken clouds.9 mph62%29.89 "HgN/A
10:30 AM86 °FSunny.8 mph70%29.89 "Hg10 mi
Weather by CustomWeather, © 2016

See weather overviewHow to use our weather pages